CST,Max TemperatureF,Mean TemperatureF,Min TemperatureF,Max Dew PointF,MeanDew PointF,Min DewpointF,Max Humidity, Mean Humidity, Min Humidity, Max Sea Level PressureIn, Mean Sea Level PressureIn, Min Sea Level PressureIn, Max VisibilityMiles, Mean VisibilityMiles, Min VisibilityMiles, Max Wind SpeedMPH, Mean Wind SpeedMPH, Max Gust SpeedMPH,PrecipitationIn, CloudCover, Events, WindDirDegrees
2012-12-1,72,63,54,59,56,51,94,79,59,30.30,30.25,30.22,10,9,2,12,3,,0.00,0,,119
2012-12-2,72,64,57,62,57,54,94,87,71,30.33,30.26,30.23,10,6,1,6,2,,0.00,2,,73
2012-12-3,72,66,59,65,60,55,100,87,68,30.29,30.23,30.20,10,6,0,12,2,,0.00,2,Fog,115
2012-12-4,75,68,62,66,63,60,94,85,71,30.29,30.22,30.18,10,9,0,12,6,,0.00,1,Fog,123
2012-12-5,73,66,59,63,59,56,94,85,66,30.19,30.13,30.06,10,8,1,8,1,,0.01,1,,98
2012-12-6,73,66,59,62,59,55,94,82,61,30.06,30.01,29.97,10,9,2,10,2,,0.00,1,,96
2012-12-7,68,65,62,61,60,57,90,83,76,30.04,29.98,29.95,10,10,7,12,7,,0.00,7,,87
2012-12-8,73,68,62,66,62,60,94,84,73,30.02,29.98,29.95,10,10,5,9,5,,0.00,5,Rain,97
2012-12-9,73,66,60,66,63,59,97,83,66,30.09,30.02,29.96,10,6,0,13,3,,0.01,4,Fog,139
2012-12-10,75,70,62,68,65,58,88,79,69,29.95,29.86,29.78,10,10,10,12,8,20,0.00,3,,217
2012-12-11,57,52,46,55,45,39,90,77,69,30.14,30.01,29.88,10,10,8,16,12,22,0.11,8,Rain,3
2012-12-12,53,48,44,44,42,38,89,80,66,30.22,30.15,30.06,10,9,7,12,8,20,0.11,6,Rain,2
2012-12-13,59,52,44,45,42,38,86,76,58,30.32,30.27,30.22,10,10,10,12,8,17,0.00,2,,36
2012-12-14,51,48,46,49,44,43,93,86,77,30.34,30.25,30.16,10,9,4,9,4,,0.00,6,,65
2012-12-15,68,60,51,63,55,48,93,82,68,30.17,30.10,30.04,10,9,2,12,6,,0.00,4,,103
2012-12-16,73,68,62,67,64,58,88,84,78,30.04,29.95,29.88,10,10,4,16,7,26,0.04,6,Rain,151
2012-12-17,73,68,62,68,63,58,88,84,78,29.89,29.83,29.74,10,8,2,15,8,24,0.16,5,Rain-Thunderstorm,201
2012-12-18,66,58,48,59,49,44,93,74,44,30.05,29.99,29.87,10,9,2,10,4,,0.00,0,,321
2012-12-19,71,58,46,63,51,45,93,82,51,30.10,30.04,29.99,10,6,0,14,3,21,0.00,1,Fog,138
2012-12-20,73,62,48,70,57,29,94,72,31,30.16,29.92,29.79,10,8,0,18,12,36,0.54,5,Fog-Rain-Thunderstorm,207
2012-12-21,55,48,41,27,21,13,49,35,18,30.33,30.25,30.17,10,10,10,17,10,25,0.00,0,,314
2012-12-22,61,49,37,36,25,18,82,47,19,30.41,30.32,30.26,10,10,10,13,7,17,0.00,0,,342
2012-12-23,66,52,41,52,43,36,86,66,49,30.27,30.18,30.07,10,10,10,8,1,,0.00,1,,165
2012-12-24,70,65,60,64,62,54,94,84,65,30.04,29.94,29.89,10,6,0,18,8,33,0.85,7,Fog-Rain-Thunderstorm,215
2012-12-25,72,64,57,66,63,54,100,86,78,29.91,29.78,29.63,10,6,0,23,7,38,0.41,7,Fog-Rain-Thunderstorm,154
2012-12-26,63,51,39,55,37,31,82,62,49,30.12,29.91,29.68,10,10,10,18,9,25,0.00,3,Rain,312
2012-12-27,50,43,36,40,34,30,85,73,59,30.19,30.12,30.08,10,10,10,13,8,,0.00,3,,342
2012-12-28,68,56,43,66,52,36,94,81,67,30.10,29.91,29.75,10,8,1,21,9,30,0.91,6,Rain-Thunderstorm,115
2012-12-29,66,52,39,64,44,29,94,73,54,30.34,30.03,29.76,10,10,3,20,10,29,0.01,5,Rain,326
2012-12-30,54,44,33,33,28,25,75,56,34,30.49,30.40,30.34,10,10,10,13,9,20,0.00,0,,11
2012-12-31,64,53,43,59,47,33,88,74,63,30.36,30.26,30.13,10,10,6,10,6,,0.00,6,Rain,76